SCP
0 -0 -0 -0 -0 -0 -0 -0 -0 -0 -0 -0 -0 -0 -0 -0 -0 -0 -0 -0 -0 -0 -0 -0 -0 -0 -0 -0 -0 -0 -0 0 -0 0 0 0 0 0 0 -0 -0 -0 -0
-0 -0 -0 -0 -0 -0 -0 -0 -0 -0 -0 -0 -0 -0 -0 -0 -0 -0 -0 -0 -0 -0 -0 -0 -0 -0 -0 -0 -0 -0 -0 0 -0 0 0 0 0 0 0 0 0 0 0
-0 -0 -0 -0 -0 -0 -0 -0 -0 -0 -0 -0 -0 -0 -0 -0 -0 -0 -0 -0 -0 -0 -0 -0 -0 -0 -0 -0 -0 -0 0 -0 0 0 0 -0 0 0 -0 -0 -0 0 0
-0 -0 -0 -0 -0 -0 -0 -0 -0 -0 -0 -0 -0 -0 -0 -0 -0 -0 -0 -0 -0 -0 -0 -0 -0 -0 -0 -0 -0 -0 -0 0 0 0 0 0 0 -0 -0 -0 0 -0 0
-0 -0 -0 -0 -0 -0 -0 -0 -0 -0 -0 -0 -0 -0 -0 -0 -0 -0 -0 -0 -0 -0 -0 -0 -0 -0 -0 -0 -0 -0 -0 0 0 0 0 0 -0 -0 0 0 0 0 0
-0 -0 -0 -0 -0 -0 -0 -0 -0 -0 0 -0 -0 -0 -0 -0 -0 -0 -0 -0 0 -0 -0 -0 -0 -0 -0 -0 -0 -0 -0 -0 0 -0 0 0 -0 0 0 0 0 0 0
-0 -0 -0 -0 -0 -0 -0 -0 -0 -0 -0 -0 -0 -0 -0 -0 -0 -0 -0 -0 0 0 -0 -0 -0 -0 -0 -0 -0 -0 -0 -0 0 -0 -0 -0 0 0 0 0 0 0 0
-0 -0 -0 -0 -0 -0 -0 -0 -0 -0 -0 0 -0 -0 -0 -0 -0 -0 -0 0 0 0 0 -0 -0 -0 -0 -0 -0 0 0 0 0 0 -0 -0 0 0 0 0 0 0 0
0 0 -0 -0 -0 -0 -0 -0 -0 -0 -0 -0 0 -0 -0 -0 0 0 -0 -0 0 0 0 0 0 0 0 0 0 0 0 0 0 0 0 0 -0 0 0 0 0 0 0
0 0 0 0 -0 -0 -0 -0 -0 -0 -0 -0 -0 -0 -0 -0 -0 0 0 0 0 0 0 0 0 0 0 0 0 0 0 0 0 0 0 0 -0 0 0 0 0 0 0
0 0 0 0 0 0 0 -0 -0 -0 -0 -0 -0 -0 -0 0 0 0 0 0 0 0 0 0 0 0 0 0 0 0 0 0 0 0 0 0 -0 0 0 0 0 0 0
-0 -0 -0 -0 -0 0 0 0 -0 0 0 0 0 0 0 0 0 0 0 0 0 0 0 0 0 0 0 0 0 0 0 0 0 0 0 0 -0 0 0 0 0 0 0
-0 -0 -0 -0 -0 -0 0 0 0 0 0 0 0 0 0 0 0 0 0 0 0 0 0 0 0 0 0 0 0 0 0 0 0 0 0 0 0 0 0 0 0 0 0
-0 -0 -0 -0 -0 -0 0 0 0 0 0 0 0 0 0 0 0 0 0 0 0 0 0 0 0 0 0 0 0 0 0 0 0 0 0 0 0 0 0 0 0 0 0
-0 -0 -0 0 0 -0 0 0 0 0 0 0 0 0 0 0 0 0 0 0 0 0 0 0 0 0 0 0 0 0 0 0 0 0 0 0 0 0 0 0 0 0 0
0 -0 0 0 0 0 0 0 0 0 0 0 0 0 0 0 0 0 0 0 0 0 0 0 0 0 0 0 0 0 0 0 0 0 0 0 0 0 0 0 0 0 0
0 0 0 0 0 0 0 0 0 0 0 0 0 0 0 0 0 0 0 0 0 0 0 0 0 0 0 0 0 0 0 0 0 0 0 0 0 0 0 0 0 0 0
0 0 0 0 0 0 0 0 0 0 0 0 0 0 0 0 0 0 0 0 0 0 0 0 0 0 0 0 0 0 0 0 0 0 0 0 0 0 0 0 0 0 0
0 0 0 0 0 0 0 0 0 0 0 0 0 0 0 0 0 0 0 0 0 0 0 0 0 0 0 0 0 0 0 0 0 0 0 0 0 0 0 0 0 0 0
0 0 0 0 0 0 0 0 0 0 0 0 0 0 0 0 0 0 0 0 0 0 0 0 0 0 0 0 0 0 0 0 0 0 0 0 0 0 0 0 0 0 0
0 0 0 0 0 0 0 0 0 0 0 0 0 0 0 0 0 0 0 0 0 0 0 0 0 0 0 0 0 0 0 0 0 0 0 0 0 0 0 0 0 0 0
0 0 0 0 0 0 0 0 0 0 0 0 0 0 0 0 0 0 0 0 0 0 0 0 0 0 0 0 0 0 0 0 0 0 0 0 0 0 0 0 0 0 0
0 0 0 0 0 0 0 0 0 0 0 0 0 0 0 0 0 0 0 0 0 0 0 0 0 0 0 0 0 0 0 0 0 0 0 0 0 0 0 0 0 0 0
0 0 0 0 0 0 0 0 0 0 0 0 0 0 0 0 0 0 0 0 0 0 0 0 0 0 0 0 0 0 0 0 0 0 0 0 0 0 0 0 0 0 0
0 0 0 0 0 0 0 0 0 0 0 0 0 0 0 0 0 0 0 0 0 0 0 0 0 0 0 0 0 0 0 0 0 0 0 0 0 0 0 0 0 0 0
0 0 0 0 0 0 0 0 0 0 0 0 0 0 0 0 0 0 0 0 0 0 0 0 0 0 0 0 0 0 0 0 0 0 0 0 0 0 0 0 0 0 0
Wind_Speed_500mb
36 33 31 25 22 18 16 13 13 14 17 18 18 18 20 23 19 19 15 27 32 26 29 28 30 30 29 31 31 27 30 34 33 35 36 27 29 30 31 30 28 28 29
36 36 32 27 21 14 13 12 11 14 14 14 15 15 17 18 20 18 11 16 31 32 27 28 28 29 29 36 32 33 34 34 33 37 42 37 30 29 35 36 35 33 29
35 35 32 27 16 12 15 12 11 12 15 16 17 16 16 17 16 16 16 23 27 26 26 26 26 27 28 29 32 36 37 35 33 33 34 31 28 29 34 35 35 32 34
34 33 31 26 17 14 11 11 11 13 17 17 14 17 16 16 16 17 19 22 25 25 24 22 21 23 27 24 30 34 35 36 35 32 31 24 23 27 24 21 21 17 17
34 31 28 24 18 13 11 11 10 11 16 18 18 17 14 14 15 15 17 18 19 20 19 18 17 19 21 24 27 30 31 30 28 27 26 24 26 26 22 17 17 18 17
32 26 24 22 17 12 8 9 8 9 13 21 22 10 17 12 12 13 13 14 14 15 14 13 13 14 18 22 22 24 25 25 23 22 23 22 25 18 18 12 17 18 18
29 26 23 21 19 14 9 7 5 6 10 17 15 17 13 8 10 13 12 13 11 10 12 10 9 10 13 16 18 17 19 18 19 19 20 20 20 16 14 13 15 15 18
25 24 24 22 20 17 12 9 7 6 10 12 16 21 15 9 10 12 13 13 13 15 15 11 8 6 6 9 13 12 12 12 13 14 15 16 16 13 14 13 11 13 14
26 25 24 23 22 20 17 14 13 8 7 11 14 20 24 12 8 12 14 14 14 15 14 12 10 7 3 2 5 6 6 7 8 9 10 11 10 11 12 11 9 11 13
25 27 27 25 23 22 21 19 16 13 11 11 15 13 17 21 11 9 10 13 15 16 16 15 12 10 7 4 2 1 4 6 5 5 6 6 8 8 9 10 10 9 10
31 29 31 29 27 25 23 21 21 20 17 15 16 20 17 17 16 10 11 14 17 17 17 17 16 15 12 10 8 7 7 8 8 7 7 6 6 7 8 9 9 9 8
32 32 32 31 29 27 27 25 24 24 23 20 18 21 24 23 19 16 14 16 18 20 21 21 20 19 17 16 15 12 14 13 12 11 10 9 9 9 8 9 10 8 7
21 27 31 33 31 31 29 27 28 27 27 25 24 23 23 27 27 22 20 18 18 17 21 22 22 22 22 21 20 19 19 20 18 17 15 14 14 13 11 11 11 8 4
28 28 28 30 33 35 34 32 30 31 30 28 27 28 27 27 30 27 24 22 21 20 21 24 25 26 26 25 24 24 25 25 25 24 21 20 20 18 16 15 15 13 9
33 31 33 34 34 34 37 37 36 36 34 30 31 31 32 30 28 31 29 27 26 26 24 26 28 29 30 30 30 30 30 30 30 29 27 25 25 24 22 21 20 22 16
38 38 36 40 41 41 40 39 39 39 37 35 35 33 33 33 32 30 32 30 29 29 28 30 31 33 34 36 35 36 34 35 35 34 33 31 30 30 28 27 26 27 26
42 42 44 44 46 49 49 47 44 41 41 41 40 37 36 35 35 35 35 35 31 32 33 35 36 38 39 39 41 40 41 40 40 39 37 38 36 35 34 33 31 31 31
47 49 47 47 48 50 55 55 53 50 46 43 43 44 41 39 37 38 40 40 37 37 40 41 39 41 43 42 43 43 45 46 46 45 45 44 43 41 40 40 39 37 37
28 31 39 45 50 51 52 58 59 57 57 51 48 47 46 46 43 42 43 42 39 42 43 44 46 46 46 46 47 49 50 51 52 51 51 50 49 48 47 45 45 44 43
49 46 44 44 42 44 51 55 61 65 65 63 59 54 48 48 48 48 49 47 43 46 48 48 50 47 50 49 52 56 56 56 56 57 56 53 52 51 52 52 51 51 47
48 54 49 44 44 47 50 58 63 66 66 68 66 59 54 52 51 52 53 53 50 50 51 50 52 53 53 50 53 62 65 62 62 59 56 54 54 53 55 57 57 56 52
51 49 51 53 53 54 53 53 60 62 63 62 63 63 59 57 55 54 55 57 56 54 55 58 56 58 59 57 53 58 63 57 55 37 31 31 35 41 43 40 42 44 46
49 49 52 59 60 58 56 55 55 61 64 64 60 60 56 58 61 60 60 59 59 58 60 60 61 59 64 65 62 54 31 28 42 43 41 40 37 41 43 43 40 40 44
50 49 47 51 58 58 60 57 53 54 59 60 58 55 54 49 47 51 54 58 60 60 58 60 61 62 64 67 72 71 69 71 57 56 50 42 37 48 51 56 57 47 46
37 40 41 43 51 55 54 52 48 46 48 58 59 57 54 49 41 39 42 46 52 57 56 58 60 60 63 64 69 73 76 75 74 79 80 80 76 70 63 59 58 55 50
20 25 30 29 31 36 41 41 38 34 34 40 44 45 45 43 40 37 38 39 41 46 48 51 54 59 57 61 62 68 74 70 65 72 78 95 97 95 88 79 75 71 67
Wind_Direction_500mb
162 158 157 162 159 151 146 136 123 118 130 142 151 156 156 162 156 137 102 118 109 106 105 99 93 87 88 85 82 85 81 88 87 86 80 76 79 78 74 68 65 67 68
163 162 160 162 158 149 137 130 130 130 129 138 143 141 146 156 168 164 147 114 111 104 109 99 95 95 86 86 80 76 73 70 75 85 76 72 72 77 74 64 67 65 62
166 162 161 166 165 143 138 133 133 133 135 137 138 136 133 129 130 129 132 118 118 112 110 102 93 87 89 84 81 77 75 71 76 86 74 59 59 80 81 80 80 79 77
167 166 166 167 157 133 133 132 136 145 157 159 151 145 136 128 125 125 124 122 123 118 121 104 96 90 91 95 86 80 78 76 74 74 82 79 66 78 87 83 67 61 57
169 173 173 169 165 164 147 145 139 141 147 139 153 143 143 136 131 128 123 125 123 125 128 112 96 88 79 83 93 86 81 78 74 72 75 73 74 83 73 64 53 50 57
173 180 183 181 176 182 164 163 142 144 152 153 169 171 159 148 126 120 119 116 119 132 124 116 105 92 80 82 88 87 83 74 72 67 67 72 73 72 87 53 44 52 48
181 186 191 192 190 197 202 196 163 148 171 169 182 161 183 163 142 129 130 131 135 130 132 131 123 90 83 82 85 88 82 74 69 67 67 70 70 68 75 69 42 37 36
194 194 195 202 203 210 214 222 215 185 195 198 183 163 196 162 157 150 150 151 156 160 164 166 140 120 88 81 79 72 70 66 62 60 62 65 64 51 55 63 40 32 28
196 203 205 210 213 219 225 227 218 214 222 230 211 180 197 202 168 160 168 168 171 178 180 178 179 179 168 89 71 63 52 43 43 45 47 57 51 54 48 46 34 31 30
207 209 214 218 227 228 229 232 228 228 225 223 237 229 209 221 211 152 174 181 186 193 193 195 200 212 220 231 257 304 360 347 350 7 7 31 28 22 34 31 25 22 32
213 218 217 224 229 235 239 239 235 232 233 230 236 233 234 235 236 215 200 201 202 205 208 210 213 222 233 247 254 265 284 296 304 312 316 332 341 347 1 3 0 9 16
222 225 225 225 230 239 239 243 244 244 240 242 241 244 237 237 238 237 229 220 218 214 214 219 225 232 237 245 255 264 272 280 284 287 292 294 300 308 325 334 331 345 358
240 237 240 238 240 243 247 249 249 248 251 247 246 246 249 240 235 237 242 247 239 232 234 237 240 244 248 252 256 263 269 274 281 280 281 282 283 288 294 301 305 314 295
250 248 247 247 246 250 252 252 256 255 253 255 255 254 250 250 248 245 243 246 250 250 244 245 247 250 254 258 261 266 268 274 278 277 277 277 276 277 280 284 288 289 279
260 263 254 250 252 255 255 255 256 258 260 260 257 257 253 252 253 249 248 247 247 250 253 255 256 258 260 261 262 265 266 271 274 275 274 272 272 273 274 275 278 280 273
274 269 264 261 256 254 256 257 256 258 260 261 263 260 258 257 254 254 249 249 252 256 259 262 264 262 262 264 266 268 269 270 273 274 273 271 270 271 272 271 271 274 274
275 273 268 266 266 262 258 257 256 259 259 259 260 261 262 259 258 257 255 252 258 259 259 263 268 270 269 270 271 271 273 274 272 271 270 269 268 268 269 269 270 271 271
276 266 266 266 265 266 264 260 258 257 259 260 258 257 259 262 261 260 259 258 258 259 260 262 266 270 273 274 276 277 275 273 273 271 269 268 269 269 268 268 269 268 268
282 277 270 270 267 265 264 262 260 258 256 259 260 257 256 258 261 265 266 265 261 261 261 265 265 268 272 275 278 277 275 274 273 272 270 269 269 268 268 267 266 267 267
268 273 270 267 272 268 261 257 258 256 255 254 256 256 256 257 260 262 266 267 266 266 264 263 268 271 275 276 278 278 277 278 276 274 273 272 270 268 268 267 266 266 265
261 263 264 264 271 271 264 257 253 256 256 256 255 258 259 259 261 261 265 268 266 265 271 271 272 272 274 277 283 284 284 282 280 279 278 275 269 266 264 265 266 264 263
259 259 259 262 268 268 264 265 257 259 262 263 263 262 260 261 262 262 264 268 271 271 272 273 272 276 278 278 276 285 294 294 295 289 283 279 271 263 263 264 265 262 258
260 261 264 269 267 264 258 258 259 253 255 260 264 266 265 263 264 266 268 268 270 271 272 275 275 274 278 282 278 270 277 280 291 288 279 275 268 266 266 268 270 266 259
269 269 271 268 262 261 254 250 256 259 257 261 266 273 275 277 277 274 271 270 271 273 272 275 278 276 273 273 278 276 271 271 275 292 286 280 269 267 270 271 273 269 265
268 263 267 265 257 251 244 246 253 260 263 261 265 270 276 282 287 288 287 279 272 272 274 272 274 276 277 275 272 274 275 274 273 267 279 284 283 280 276 272 273 268 263
264 259 264 265 246 240 238 239 249 259 266 269 272 277 284 288 288 287 290 292 287 282 280 280 280 279 280 279 277 274 274 267 267 268 269 280 283 285 284 280 275 269 266
Wind_Speed_850mb
36 33 31 25 22 18 16 13 13 14 17 18 18 18 20 23 19 19 15 27 32 26 29 28 30 30 29 31 31 27 30 34 33 35 36 27 29 30 31 30 28 28 29
36 36 32 27 21 14 13 12 11 14 14 14 15 15 17 18 20 18 11 16 31 32 27 28 28 29 29 36 32 33 34 34 33 37 42 37 30 29 35 36 35 33 29
35 35 32 27 16 12 15 12 11 12 15 16 17 16 16 17 16 16 16 23 27 26 26 26 26 27 28 29 32 36 37 35 33 33 34 31 28 29 34 35 35 32 34
34 33 31 26 17 14 11 11 11 13 17 17 14 17 16 16 16 17 19 22 25 25 24 22 21 23 27 24 30 34 35 36 35 32 31 24 23 27 24 21 21 17 17
34 31 28 24 18 13 11 11 10 11 16 18 18 17 14 14 15 15 17 18 19 20 19 18 17 19 21 24 27 30 31 30 28 27 26 24 26 26 22 17 17 18 17
32 26 24 22 17 12 8 9 8 9 13 21 22 10 17 12 12 13 13 14 14 15 14 13 13 14 18 22 22 24 25 25 23 22 23 22 25 18 18 12 17 18 18
29 26 23 21 19 14 9 7 5 6 10 17 15 17 13 8 10 13 12 13 11 10 12 10 9 10 13 16 18 17 19 18 19 19 20 20 20 16 14 13 15 15 18
25 24 24 22 20 17 12 9 7 6 10 12 16 21 15 9 10 12 13 13 13 15 15 11 8 6 6 9 13 12 12 12 13 14 15 16 16 13 14 13 11 13 14
26 25 24 23 22 20 17 14 13 8 7 11 14 20 24 12 8 12 14 14 14 15 14 12 10 7 3 2 5 6 6 7 8 9 10 11 10 11 12 11 9 11 13
25 27 27 25 23 22 21 19 16 13 11 11 15 13 17 21 11 9 10 13 15 16 16 15 12 10 7 4 2 1 4 6 5 5 6 6 8 8 9 10 10 9 10
31 29 31 29 27 25 23 21 21 20 17 15 16 20 17 17 16 10 11 14 17 17 17 17 16 15 12 10 8 7 7 8 8 7 7 6 6 7 8 9 9 9 8
32 32 32 31 29 27 27 25 24 24 23 20 18 21 24 23 19 16 14 16 18 20 21 21 20 19 17 16 15 12 14 13 12 11 10 9 9 9 8 9 10 8 7
21 27 31 33 31 31 29 27 28 27 27 25 24 23 23 27 27 22 20 18 18 17 21 22 22 22 22 21 20 19 19 20 18 17 15 14 14 13 11 11 11 8 4
28 28 28 30 33 35 34 32 30 31 30 28 27 28 27 27 30 27 24 22 21 20 21 24 25 26 26 25 24 24 25 25 25 24 21 20 20 18 16 15 15 13 9
33 31 33 34 34 34 37 37 36 36 34 30 31 31 32 30 28 31 29 27 26 26 24 26 28 29 30 30 30 30 30 30 30 29 27 25 25 24 22 21 20 22 16
38 38 36 40 41 41 40 39 39 39 37 35 35 33 33 33 32 30 32 30 29 29 28 30 31 33 34 36 35 36 34 35 35 34 33 31 30 30 28 27 26 27 26
42 42 44 44 46 49 49 47 44 41 41 41 40 37 36 35 35 35 35 35 31 32 33 35 36 38 39 39 41 40 41 40 40 39 37 38 36 35 34 33 31 31 31
47 49 47 47 48 50 55 55 53 50 46 43 43 44 41 39 37 38 40 40 37 37 40 41 39 41 43 42 43 43 45 46 46 45 45 44 43 41 40 40 39 37 37
28 31 39 45 50 51 52 58 59 57 57 51 48 47 46 46 43 42 43 42 39 42 43 44 46 46 46 46 47 49 50 51 52 51 51 50 49 48 47 45 45 44 43
49 46 44 44 42 44 51 55 61 65 65 63 59 54 48 48 48 48 49 47 43 46 48 48 50 47 50 49 52 56 56 56 56 57 56 53 52 51 52 52 51 51 47
48 54 49 44 44 47 50 58 63 66 66 68 66 59 54 52 51 52 53 53 50 50 51 50 52 53 53 50 53 62 65 62 62 59 56 54 54 53 55 57 57 56 52
51 49 51 53 53 54 53 53 60 62 63 62 63 63 59 57 55 54 55 57 56 54 55 58 56 58 59 57 53 58 63 57 55 37 31 31 35 41 43 40 42 44 46
49 49 52 59 60 58 56 55 55 61 64 64 60 60 56 58 61 60 60 59 59 58 60 60 61 59 64 65 62 54 31 28 42 43 41 40 37 41 43 43 40 40 44
50 49 47 51 58 58 60 57 53 54 59 60 58 55 54 49 47 51 54 58 60 60 58 60 61 62 64 67 72 71 69 71 57 56 50 42 37 48 51 56 57 47 46
37 40 41 43 51 55 54 52 48 46 48 58 59 57 54 49 41 39 42 46 52 57 56 58 60 60 63 64 69 73 76 75 74 79 80 80 76 70 63 59 58 55 50
20 25 30 29 31 36 41 41 38 34 34 40 44 45 45 43 40 37 38 39 41 46 48 51 54 59 57 61 62 68 74 70 65 72 78 95 97 95 88 79 75 71 67
Wind_Direction_850mb
162 158 157 162 159 151 146 136 123 118 130 142 151 156 156 162 156 137 102 118 109 106 105 99 93 87 88 85 82 85 81 88 87 86 80 76 79 78 74 68 65 67 68
163 162 160 162 158 149 137 130 130 130 129 138 143 141 146 156 168 164 147 114 111 104 109 99 95 95 86 86 80 76 73 70 75 85 76 72 72 77 74 64 67 65 62
166 162 161 166 165 143 138 133 133 133 135 137 138 136 133 129 130 129 132 118 118 112 110 102 93 87 89 84 81 77 75 71 76 86 74 59 59 80 81 80 80 79 77
167 166 166 167 157 133 133 132 136 145 157 159 151 145 136 128 125 125 124 122 123 118 121 104 96 90 91 95 86 80 78 76 74 74 82 79 66 78 87 83 67 61 57
169 173 173 169 165 164 147 145 139 141 147 139 153 143 143 136 131 128 123 125 123 125 128 112 96 88 79 83 93 86 81 78 74 72 75 73 74 83 73 64 53 50 57
173 180 183 181 176 182 164 163 142 144 152 153 169 171 159 148 126 120 119 116 119 132 124 116 105 92 80 82 88 87 83 74 72 67 67 72 73 72 87 53 44 52 48
181 186 191 192 190 197 202 196 163 148 171 169 182 161 183 163 142 129 130 131 135 130 132 131 123 90 83 82 85 88 82 74 69 67 67 70 70 68 75 69 42 37 36
194 194 195 202 203 210 214 222 215 185 195 198 183 163 196 162 157 150 150 151 156 160 164 166 140 120 88 81 79 72 70 66 62 60 62 65 64 51 55 63 40 32 28
196 203 205 210 213 219 225 227 218 214 222 230 211 180 197 202 168 160 168 168 171 178 180 178 179 179 168 89 71 63 52 43 43 45 47 57 51 54 48 46 34 31 30
207 209 214 218 227 228 229 232 228 228 225 223 237 229 209 221 211 152 174 181 186 193 193 195 200 212 220 231 257 304 360 347 350 7 7 31 28 22 34 31 25 22 32
213 218 217 224 229 235 239 239 235 232 233 230 236 233 234 235 236 215 200 201 202 205 208 210 213 222 233 247 254 265 284 296 304 312 316 332 341 347 1 3 0 9 16
222 225 225 225 230 239 239 243 244 244 240 242 241 244 237 237 238 237 229 220 218 214 214 219 225 232 237 245 255 264 272 280 284 287 292 294 300 308 325 334 331 345 358
240 237 240 238 240 243 247 249 249 248 251 247 246 246 249 240 235 237 242 247 239 232 234 237 240 244 248 252 256 263 269 274 281 280 281 282 283 288 294 301 305 314 295
250 248 247 247 246 250 252 252 256 255 253 255 255 254 250 250 248 245 243 246 250 250 244 245 247 250 254 258 261 266 268 274 278 277 277 277 276 277 280 284 288 289 279
260 263 254 250 252 255 255 255 256 258 260 260 257 257 253 252 253 249 248 247 247 250 253 255 256 258 260 261 262 265 266 271 274 275 274 272 272 273 274 275 278 280 273
274 269 264 261 256 254 256 257 256 258 260 261 263 260 258 257 254 254 249 249 252 256 259 262 264 262 262 264 266 268 269 270 273 274 273 271 270 271 272 271 271 274 274
275 273 268 266 266 262 258 257 256 259 259 259 260 261 262 259 258 257 255 252 258 259 259 263 268 270 269 270 271 271 273 274 272 271 270 269 268 268 269 269 270 271 271
276 266 266 266 265 266 264 260 258 257 259 260 258 257 259 262 261 260 259 258 258 259 260 262 266 270 273 274 276 277 275 273 273 271 269 268 269 269 268 268 269 268 268
282 277 270 270 267 265 264 262 260 258 256 259 260 257 256 258 261 265 266 265 261 261 261 265 265 268 272 275 278 277 275 274 273 272 270 269 269 268 268 267 266 267 267
268 273 270 267 272 268 261 257 258 256 255 254 256 256 256 257 260 262 266 267 266 266 264 263 268 271 275 276 278 278 277 278 276 274 273 272 270 268 268 267 266 266 265
261 263 264 264 271 271 264 257 253 256 256 256 255 258 259 259 261 261 265 268 266 265 271 271 272 272 274 277 283 284 284 282 280 279 278 275 269 266 264 265 266 264 263
259 259 259 262 268 268 264 265 257 259 262 263 263 262 260 261 262 262 264 268 271 271 272 273 272 276 278 278 276 285 294 294 295 289 283 279 271 263 263 264 265 262 258
260 261 264 269 267 264 258 258 259 253 255 260 264 266 265 263 264 266 268 268 270 271 272 275 275 274 278 282 278 270 277 280 291 288 279 275 268 266 266 268 270 266 259
269 269 271 268 262 261 254 250 256 259 257 261 266 273 275 277 277 274 271 270 271 273 272 275 278 276 273 273 278 276 271 271 275 292 286 280 269 267 270 271 273 269 265
268 263 267 265 257 251 244 246 253 260 263 261 265 270 276 282 287 288 287 279 272 272 274 272 274 276 277 275 272 274 275 274 273 267 279 284 283 280 276 272 273 268 263
264 259 264 265 246 240 238 239 249 259 266 269 272 277 284 288 288 287 290 292 287 282 280 280 280 279 280 279 277 274 274 267 267 268 269 280 283 285 284 280 275 269 266